Time,TemperatureF,DewpointF,PressureIn,WindDirection,WindDirectionDegrees,WindSpeedMPH,WindSpeedGustMPH,Humidity,HourlyPrecipIn,Conditions,Clouds,dailyrainin,SolarRadiationWatts/m^2,SoftwareType,DateUTC
2013-01-06 16:02:00,59.0,25.0,29.99,South,179,6.0,14.0,27,-99.99,,,-99.99,120.000000,,2013-01-07 00:02:00,
2013-01-06 16:12:00,57.0,28.0,29.99,South,177,13.0,19.0,32,-99.99,,,-99.99,140.000000,,2013-01-07 00:12:00,
2013-01-06 16:22:00,56.0,29.0,29.99,South,173,12.0,21.0,35,-99.99,,,-99.99,40.000000,,2013-01-07 00:22:00,
2013-01-06 16:30:00,55.0,26.0,29.98,South,182,9.0,15.0,32,-99.99,,,-99.99,10.000000,,2013-01-07 00:30:00,
2013-01-06 16:32:00,56.0,28.0,29.99,South,178,10.0,18.0,34,-99.99,,,-99.99,30.000000,,2013-01-07 00:32:00,
2013-01-06 16:42:00,56.0,28.0,29.99,South,178,10.0,18.0,34,-99.99,,,-99.99,30.000000,,2013-01-07 00:42:00,
2013-01-06 16:52:00,55.0,27.0,29.98,South,175,11.0,18.0,33,-99.99,,,-99.99,10.000000,,2013-01-07 00:52:00,
2013-01-06 17:02:00,55.0,26.0,29.98,South,182,9.0,15.0,32,-99.99,,,-99.99,10.000000,,2013-01-07 01:02:00,
2013-01-06 17:12:00,55.0,26.0,29.98,South,182,9.0,15.0,32,-99.99,,,-99.99,10.000000,,2013-01-07 01:12:00,
2013-01-06 17:22:00,55.0,26.0,29.98,South,182,9.0,15.0,32,-99.99,,,-99.99,10.000000,,2013-01-07 01:22:00,
2013-01-06 17:42:00,54.0,30.0,29.98,South,181,14.0,24.0,39,-99.99,,,-99.99,0.000000,,2013-01-07 01:42:00,
2013-01-06 17:52:00,53.0,31.0,29.97,SSW,198,13.0,23.0,42,-99.99,,,-99.99,0.000000,,2013-01-07 01:52:00,
2013-01-06 18:02:00,53.0,30.0,29.97,South,184,13.0,22.0,41,-99.99,,,-99.99,0.000000,,2013-01-07 02:02:00,
2013-01-06 18:12:00,53.0,30.0,29.97,South,178,12.0,19.0,41,-99.99,,,-99.99,0.000000,,2013-01-07 02:12:00,
2013-01-06 18:22:00,53.0,29.0,29.97,South,187,11.0,20.0,39,-99.99,,,-99.99,0.000000,,2013-01-07 02:22:00,
2013-01-06 18:30:00,53.0,29.0,29.96,South,184,14.0,22.0,40,-99.99,,,-99.99,0.000000,,2013-01-07 02:30:00,
2013-01-06 18:32:00,53.0,28.0,29.97,South,180,15.0,25.0,37,-99.99,,,-99.99,0.000000,,2013-01-07 02:32:00,
2013-01-06 18:42:00,53.0,29.0,29.97,South,179,15.0,25.0,39,-99.99,,,-99.99,0.000000,,2013-01-07 02:42:00,
2013-01-06 18:52:00,53.0,29.0,29.96,South,182,15.0,25.0,40,-99.99,,,-99.99,0.000000,,2013-01-07 02:52:00,
2013-01-06 19:02:00,53.0,29.0,29.96,South,184,14.0,22.0,40,-99.99,,,-99.99,0.000000,,2013-01-07 03:02:00,
2013-01-06 19:12:00,53.0,29.0,29.96,South,184,14.0,22.0,40,-99.99,,,-99.99,0.000000,,2013-01-07 03:12:00,
2013-01-06 19:22:00,53.0,29.0,29.96,South,184,14.0,22.0,40,-99.99,,,-99.99,0.000000,,2013-01-07 03:22:00,
2013-01-06 20:12:00,52.0,31.0,29.96,South,173,12.0,18.0,45,-99.99,,,-99.99,0.000000,,2013-01-07 04:12:00,
2013-01-06 20:22:00,52.0,31.0,29.96,South,173,12.0,18.0,45,-99.99,,,-99.99,0.000000,,2013-01-07 04:22:00,
2013-01-06 20:32:00,52.0,32.0,29.96,South,176,12.0,18.0,46,-99.99,,,-99.99,0.000000,,2013-01-07 04:32:00,
2013-01-06 20:42:00,52.0,32.0,29.96,South,174,15.0,22.0,47,-99.99,,,-99.99,0.000000,,2013-01-07 04:42:00,
2013-01-06 20:52:00,52.0,32.0,29.96,South,175,14.0,23.0,47,-99.99,,,-99.99,0.000000,,2013-01-07 04:52:00,
2013-01-06 21:02:00,51.0,32.0,29.96,South,180,12.0,17.0,47,-99.99,,,-99.99,0.000000,,2013-01-07 05:02:00,
2013-01-06 21:12:00,52.0,31.0,29.96,South,180,10.0,18.0,46,-99.99,,,-99.99,0.000000,,2013-01-07 05:12:00,
2013-01-06 21:22:00,52.0,31.0,29.96,South,177,9.0,14.0,46,-99.99,,,-99.99,0.000000,,2013-01-07 05:22:00,
2013-01-06 21:32:00,52.0,31.0,29.96,South,177,9.0,14.0,46,-99.99,,,-99.99,0.000000,,2013-01-07 05:32:00,
2013-01-06 21:42:00,52.0,30.0,29.96,South,180,8.0,14.0,44,-99.99,,,-99.99,0.000000,,2013-01-07 05:42:00,
2013-01-06 21:52:00,52.0,30.0,29.96,South,180,8.0,14.0,44,-99.99,,,-99.99,0.000000,,2013-01-07 05:52:00,
2013-01-06 22:02:00,52.0,30.0,29.96,South,180,8.0,14.0,44,-99.99,,,-99.99,0.000000,,2013-01-07 06:02:00,
2013-01-06 22:12:00,48.0,36.0,29.96,NW,325,6.0,10.0,64,-99.99,,,-99.99,0.000000,,2013-01-07 06:12:00,
2013-01-06 22:22:00,48.0,36.0,29.96,NNW,337,5.0,10.0,64,-99.99,,,-99.99,0.000000,,2013-01-07 06:22:00,
2013-01-06 22:32:00,48.0,36.0,29.96,NNE,15,2.0,4.0,64,-99.99,,,-99.99,0.000000,,2013-01-07 06:32:00,
2013-01-06 22:42:00,48.0,36.0,29.95,NE,35,1.0,3.0,64,-99.99,,,-99.99,0.000000,,2013-01-07 06:42:00,
2013-01-06 22:52:00,47.0,36.0,29.96,ESE,111,1.0,3.0,64,-99.99,,,-99.99,0.000000,,2013-01-07 06:52:00,
2013-01-06 23:02:00,48.0,36.0,29.95,South,177,1.0,3.0,63,-99.99,,,-99.99,0.000000,,2013-01-07 07:02:00,
2013-01-06 23:11:00,48.0,36.0,29.95,SSW,212,2.0,4.0,63,-99.99,,,-99.99,0.000000,,2013-01-07 07:11:00,
2013-01-06 23:22:00,48.0,36.0,29.95,SSW,212,2.0,4.0,63,-99.99,,,-99.99,0.000000,,2013-01-07 07:22:00,
2013-01-06 23:32:00,48.0,35.0,29.95,East,80,2.0,4.0,62,-99.99,,,-99.99,0.000000,,2013-01-07 07:32:00,
2013-01-06 23:42:00,48.0,35.0,29.95,East,80,2.0,4.0,62,-99.99,,,-99.99,0.000000,,2013-01-07 07:42:00,
2013-01-06 23:52:00,48.0,35.0,29.95,WSW,248,1.0,1.0,61,-99.99,,,-99.99,0.000000,,2013-01-07 07:52:00,